This is the latest recevied weather packets stored in our database for station/object WR7DW-3. If no packets are shown the sender has not sent any weather packets the latest 1 day(s).
| Time | Temp. | Humidity | Pressure | Rain* | Wind** | Luminosity | Snow |
|---|---|---|---|---|---|---|---|
| 1778003979 | 0.56° C | 64% | 1012.1 hPa | 0 mm | 0 m/s | - | - |
| 1778003082 | 0.56° C | 62% | 1011.9 hPa | 0 mm | 0 m/s | - | - |
| 1778002179 | 0° C | 63% | 1011.7 hPa | 0 mm | 0 m/s | - | - |
| 1778001279 | 0.56° C | 62% | 1011.8 hPa | 0 mm | 0 m/s | - | - |
| 1778000379 | 0.56° C | 63% | 1011.8 hPa | 0 mm | 0 m/s | - | - |
| 1777999479 | 0° C | 64% | 1011.6 hPa | 0 mm | 0 m/s | - | - |
| 1777998579 | -0.56° C | 65% | 1011.4 hPa | 0 mm | 0 m/s | - | - |
| 1777997679 | -1.11° C | 65% | 1011.4 hPa | 0 mm | 0 m/s | - | - |
| 1777996779 | -1.11° C | 66% | 1011.4 hPa | 0 mm | 0 m/s | - | - |
| 1777995879 | -1.11° C | 65% | 1011.5 hPa | 0 mm | 0 m/s | - | - |
| 1777994979 | -1.67° C | 66% | 1011.6 hPa | 0 mm | 0 m/s | - | - |
| 1777994081 | -1.67° C | 67% | 1011.5 hPa | 0 mm | 0 m/s | - | - |
| 1777993179 | -2.22° C | 65% | 1011.2 hPa | 0 mm | 0 m/s | - | - |
| 1777992279 | -2.22° C | 65% | 1011 hPa | 0 mm | 0 m/s | - | - |
| 1777991379 | -2.22° C | 66% | 1010.9 hPa | 0 mm | 0 m/s | - | - |
| 1777990481 | -2.22° C | 65% | 1010.7 hPa | 0 mm | 0 m/s | - | - |
| 1777989579 | -2.22° C | 65% | 1010.5 hPa | 0 mm | 0 m/s | - | - |
| 1777988679 | -2.22° C | 66% | 1010.3 hPa | 0 mm | 0 m/s | - | - |
| 1777987779 | -2.78° C | 66% | 1009.9 hPa | 0 mm | 0 m/s | - | - |
| 1777986881 | -2.78° C | 66% | 1009.8 hPa | 0 mm | 0 m/s | - | - |
| 1777985979 | -2.78° C | 67% | 1009.6 hPa | 0 mm | 0 m/s | - | - |
| 1777985080 | -2.78° C | 65% | 1009.6 hPa | 0 mm | 0 m/s | - | - |
| 1777984181 | -2.78° C | 66% | 1009.6 hPa | 0 mm | 0 m/s | - | - |
| 1777981479 | -2.78° C | 65% | 1009.1 hPa | 0 mm | 0 m/s | - | - |
| 1777980579 | -2.22° C | 64% | 1009.2 hPa | 0 mm | 0 m/s | - | - |
* Rain latest hour (hover to see other rain measurements)
** Current wind speed in m/s (hover to see current wind gust speed)